Volver al catálogo

TITAN 34D TRANSTAGE DEB

ActivoHEO
NORAD 25587·DEBRIS·🇺🇸 United States

Lanzado Sep 2, 1988 desde Cape Canaveral Space Force Station

Loading…

Próximos Pases (próximas 24 horas)

TLE

ActualizadoSource: Space-Track

Época: Sep 14, 2026, 02:51 UTC

1 25587U 88077S   26257.11893998  .00000068  00000-0  27895-3 0  9995
2 25587  27.2974 185.0882 5503949 192.9568 143.5567  4.55038687118666

Sigue TITAN 34D TRANSTAGE DEB en tiempo real con AllMySat

Download on the App Store